Regional Weather Roundup
Issued by NWS

Home | Current Version | Previous Version | Text Only | Print | Product List | Glossary On
Versions: 1 2 3 4 5 6 7 8 9 10 11 12 13 14 15 16 17 18 19 20 21 22 23 24 25 26 27 28 29 30 31 32 33 34 35 36 37 38 39 40 41 42 43 44 45 46 47 48 49 50
000
ASUS46 KSEW 070110
RWRWA

WASHINGTON REGIONAL WEATHER ROUNDUP
NATIONAL WEATHER SERVICE SEATTLE WA
500 PM PST SAT FEB 06 2016

NOTE:"FAIR" INDICATES FEW OR NO CLOUDS BELOW 12,000 FEET WITH NO
SIGNIFICANT WEATHER AND/OR OBSTRUCTIONS TO VISIBILITY.

WAZ505-507>509-070200-
SEATTLE, TACOMA, EVERETT, AND VICINITY

CITY           SKY/WX    TMP DP  RH WIND       PRES   REMARKS
EVERETT        PTCLDY    46  37  71 S6        30.45S
BOEING FIELD   MOCLDY    47  40  76 CALM      30.46S
RENTON         MOCLDY    50  39  66 CALM      30.45F
SEATAC AIRPORT MOCLDY    47  39  74 CALM      30.45S
JBLM-MCCHORD   CLOUDY    47  42  82 CALM      30.45S
PUYALLUP       FAIR      46  43  87 CALM      30.44S
BREMERTON      MOCLDY    45  43  93 CALM      30.49R
JBLM-FT LEWIS  CLOUDY    47  47  99 S1        30.44S
TACOMA NARROWS CLOUDY    46  41  82 CALM      30.46R
$$

WAZ001-503-506-510-514-515-070200-
NORTH INTERIOR

CITY           SKY/WX    TMP DP  RH WIND       PRES   REMARKS
BELLINGHAM     PTCLDY    46  40  79 CALM      30.45F
FRIDAY HARBOR  CLEAR     43  39  86 CALM      30.46F
EASTSOUND      CLEAR     45  39  81 S3        30.44S
PORT ANGELES   PTCLDY    45  40  82 CALM      30.44S
EDIZ HOOK      FAIR      46  42  87 E7        30.45S
PORT TOWNSEND  FAIR      41  39  93 CALM      30.46S
NAS WHIDBEY    PTCLDY    46  40  79 SE3       30.50S
ARLINGTON      PTCLDY    46  36  66 SE3       30.47S
BURLINGTON     CLEAR     45  41  87 CALM      30.46S
$$

WAZ020-022-039-040-504-511-512-070200-
SOUTHWEST INTERIOR

CITY           SKY/WX    TMP DP  RH WIND       PRES   REMARKS
SHELTON        MOCLDY    48  40  73 CALM      30.43R
OLYMPIA        CLOUDY    45  41  86 CALM      30.45S
CHEHALIS       CLOUDY    50  41  71 CALM      30.45R
KELSO          CLOUDY    48  37  66 CALM      30.46S
VANCOUVER      CLOUDY    50  41  71 NW3       30.43F
SCAPPOOSE, OR  CLOUDY    49  39  68 CALM      30.43S
PORTLAND, OR   CLOUDY    50  42  74 W5        30.43F
$$

WAZ021-516-517-070200-
WASHINGTON COAST

CITY           SKY/WX    TMP DP  RH WIND       PRES   REMARKS
FORKS          MOCLDY    46  43  89 CALM      30.44R
HOQUIAM        CLOUDY    48  44  86 E6        30.43R
ASTORIA, OR    CLOUDY    50  42  74 E7        30.41S
$$

WAZ019-023-024-040-518-519-070200-
CASCADE MOUNTAINS AND COLUMBIA GORGE

CITY           SKY/WX    TMP DP  RH WIND       PRES   REMARKS
STAMPEDE PASS  NOT AVBL
TROUTDALE, OR  CLOUDY    52  38  58 CALM      30.43F
THE DALLES, OR MOCLDY    50  34  54 N7        30.43R
$$

WAZ026-027-041>044-520-521-070200-
EAST SLOPES

CITY           SKY/WX    TMP DP  RH WIND       PRES   REMARKS
OMAK           MOCLDY    33  28  81 SE3       30.40R
WENATCHEE      CLOUDY    42  31  64 CALM      30.39S
ELLENSBURG     MOCLDY    41  30  65 W3        30.40F
YAKIMA         MOCLDY    48  31  51 SW3       30.42S
$$

WAZ028-034-035-070200-
COLUMBIA BASIN

CITY           SKY/WX    TMP DP  RH WIND       PRES   REMARKS
EPHRATA        CLOUDY    39  33  79 S6        30.39F
MOSES LAKE     CLOUDY    43  31  62 SW7       30.42S
PASCO          CLOUDY    47  35  63 S7        30.43F
HERMISTON, OR  CLOUDY    46  35  65 CALM      30.43S
$$

WAZ036>038-070200-
NORTHEAST WASHINGTON

CITY           SKY/WX    TMP DP  RH WIND       PRES   REMARKS
SPOKANE GEIGER CLOUDY    37  31  78 SW12      30.38R
SPOKANE FELTS  CLOUDY    41  31  67 W6        30.40R
FAIRCHILD AFB  CLOUDY    36  33  88 SW9       30.38R
COEURDALENE,ID CLOUDY    39  30  70 SE5       30.36R
DEER PARK      CLOUDY    35  29  78 S7        30.38R
$$

WAZ029>033-070200-
SOUTHEAST WASHINGTON

CITY           SKY/WX    TMP DP  RH WIND       PRES   REMARKS
PULLMAN        CLOUDY    38  32  79 NW5       30.42R
LEWISTON, ID   CLOUDY    47  28  47 E3        30.41R
WALLA WALLA    CLOUDY    46  32  58 S5        30.42F
PENDLETON, OR  CLOUDY    43  32  65 CALM      30.41F
$$




USA.gov is the U.S. government's official web portal to all federal, state and local government web resources and services.